Weather History for KRNT - May, 2013

Change the Weather History Date:

Thursday, May 2, 2013

  Actual Average Record
Temperature  
Mean Temperature 54 °F -  
Max Temperature 66 °F 60 °F 71 °F (2004)
Min Temperature 43 °F 44 °F 37 °F (2006)
Degree Days  
Heating Degree Days 10    
Growing Degree Days 4 (Base 50)    
Moisture  
Dew Point 41 °F    
Average Humidity 60    
Maximum Humidity 86    
Minimum Humidity 38    
Precipitation  
Precipitation 0.00 in - - ()
Sea Level Pressure  
Sea Level Pressure 30.46 in    
Wind  
Wind Speed 6 mph (NW)    
Max Wind Speed 14 mph    
Max Gust Speed -    
Visibility 10 miles    
Events      
Averages and records for this station are not official NWS values.
T = Trace of Precipitation, MM = Missing Value Source: NWS Daily Summary

Daily Weather History Graph

Daily Weather History Graph

Search for Another Location

Airport or City:

Trip Planner

Search our weather history database for the weather conditions in past years. The results will help you decide how hot, cold, wet, or windy it might be!

Date:

Astronomy

May. 02, 2013 Rise Set
Actual Time 5:49 AM PDT 8:22 PM PDT
Civil Twilight 5:15 AM PDT 8:57 PM PDT
Nautical Twilight 4:31 AM PDT 9:40 PM PDT
Astronomical Twilight 3:41 AM PDT 10:31 PM PDT
Moon 2:11 AM PDT (5/2) 12:48 PM PDT (5/2)
Length of Visible Light 15h 41m
Length of Day
14h 32m
Waning Gibbous, 46% of the Moon is Illuminated
May 2
Waning Gibbous
May 9
New
May 17
First Quarter
May 24
Full
May 31
Last Quarter

Hourly Weather History & Observations

Time (PDT) Temp. Dew Point Humidity Pressure Visibility Wind Dir Wind Speed Gust Speed Precip Events Conditions
12:53 AM 52.0 °F 39.9 °F 63% 30.56 in 10.0 mi NW 8.1 mph - N/A   Clear
1:53 AM 50.0 °F 41.0 °F 71% 30.55 in 10.0 mi NNW 4.6 mph - N/A   Clear
2:53 AM 48.9 °F 39.0 °F 69% 30.55 in 10.0 mi Calm Calm - N/A   Clear
3:53 AM 46.9 °F 41.0 °F 80% 30.54 in 10.0 mi NNW 3.5 mph - N/A   Clear
4:53 AM 45.0 °F 39.0 °F 80% 30.52 in 10.0 mi Calm Calm - N/A   Clear
5:53 AM 45.0 °F 41.0 °F 86% 30.52 in 10.0 mi Calm Calm - N/A   Clear
6:53 AM 43.0 °F 39.0 °F 86% 30.52 in 10.0 mi Calm Calm - N/A   Clear
7:53 AM 48.0 °F 41.0 °F 77% 30.51 in 10.0 mi NNW 3.5 mph - N/A   Clear
8:53 AM 51.1 °F 41.0 °F 68% 30.51 in 10.0 mi NW 5.8 mph - N/A   Clear
9:53 AM 55.0 °F 41.0 °F 59% 30.48 in 10.0 mi NW 8.1 mph - N/A   Clear
10:53 AM 60.1 °F 39.0 °F 46% 30.47 in 10.0 mi NW 8.1 mph - N/A   Clear
11:53 AM 62.6 °F 42.8 °F 48% 30.43 in 10.0 mi NW 11.5 mph - N/A   Clear
12:53 PM 66.0 °F 39.9 °F 38% 30.43 in 10.0 mi NW 11.5 mph - N/A   Clear
1:53 PM 66.9 °F 42.1 °F 40% 30.41 in 10.0 mi NW 10.4 mph - N/A   Clear
2:53 PM 66.9 °F 43.0 °F 42% 30.40 in 10.0 mi NW 12.7 mph - N/A   Clear
3:53 PM 64.0 °F 41.0 °F 43% 30.40 in 10.0 mi NW 13.8 mph - N/A   Clear
4:53 PM 63.0 °F 41.0 °F 45% 30.40 in 10.0 mi NW 11.5 mph - N/A   Clear
5:53 PM 61.0 °F 41.0 °F 48% 30.39 in 10.0 mi NW 10.4 mph - N/A   Clear
6:53 PM 60.1 °F 43.0 °F 53% 30.39 in 10.0 mi NW 11.5 mph - N/A   Clear
7:53 PM 57.9 °F 41.0 °F 53% 30.39 in 10.0 mi NNW 10.4 mph - N/A   Clear
8:53 PM 57.0 °F 42.1 °F 57% 30.39 in 10.0 mi NNW 9.2 mph - N/A   Clear
9:53 PM 55.9 °F 37.9 °F 51% 30.40 in 10.0 mi NNW 6.9 mph - N/A   Clear
10:53 PM 54.0 °F 41.0 °F 62% 30.40 in 10.0 mi NNW 5.8 mph - N/A   Clear
11:53 PM 52.0 °F 42.1 °F 69% 30.40 in 10.0 mi NNW 4.6 mph - N/A   Clear